Miscellaneous Local Product
Issued by NWS North Platte, NE

Home | Current Version | Previous Version | Text Only | Print | Product List | Glossary On
Versions: 1 2 3 4 5 6 7 8 9 10 11 12 13 14 15 16 17 18 19 20 21 22 23 24 25 26 27 28 29 30 31 32 33 34 35 36 37 38 39 40 41 42 43 44 45 46 47 48 49 50
000
AXUS43 KLBF 261510
MISLBF


WESTERN AND NORTH CENTRAL NEBRASKA HOURLY WEATHER ROUNDUP
NATIONAL WEATHER SERVICE NORTH PLATTE NE
1000 AM CDT SAT JUL 26 2014

***STATIONS NOT REPORTING VARIABLES SUCH AS SKY/WEATHER OR
PRESSURE ARE PROVIDED BY THE NEBRASKA DEPARTMENT OF
ROADS...RAWS...AND APRS NETWORKS...AND ARE NOT UNDER
NATIONAL WEATHER SERVICE QUALITY CONTROL***

...OBSERVATIONS IN AND NEAR THE EASTERN PANHANDLE OF NEBRASKA...

CITY           SKY/WX    TMP DP  RH WIND       PRES   REMARKS
PINE RIDGE     SUNNY     71  55  56 NW12      30.05R
CHADRON        SUNNY     77  51  40 N15G22    30.06R
ALLIANCE       MOSUNNY   77  50  38 N14       30.06R
SIDNEY         SUNNY     80  50  34 N18       30.08S
WHITECLAY        N/A     71  52  50 NW12        N/A
RUSHVILLE        N/A     74  49  41 N33         N/A
GORDON           N/A     73  61  65 NW20        N/A
CRESCENT LAKE    N/A     76  55  47 NW13        N/A
LISCO            N/A     78  55  44 W13         N/A
BIG SPRINGS      N/A     74  58  57 NW3         N/A
$$

...OBSERVATIONS IN NORTH CENTRAL NEBRASKA...

CITY           SKY/WX    TMP DP  RH WIND       PRES   REMARKS
VALENTINE      MOSUNNY   79  67  66 NW18G26   29.90R
THEDFORD       SUNNY     81  62  52 NW17      29.92R
AINSWORTH      SUNNY     79  65  62 W15       29.87S
O`NEILL        SUNNY     83  70  63 S15       29.83F
ORD            CLOUDY    78  74  87 S9        29.85S FOG
BROKEN BOW     SUNNY     83  73  72 SE6       29.87S
BROWNLEE         N/A     83  59  44 NW23        N/A
SPRINGVIEW       N/A     81  72  73 S6          N/A
DUNNING          N/A     83  69  62 N9          N/A
ROSE             N/A     85  76  76 SE9         N/A  HX  94
NEWPORT          N/A     81  75  83 S13         N/A
SARGENT          N/A     82  74  77 CALM        N/A
COMSTOCK         N/A     87  79  75 S8          N/A  HX 102
CHAMBERS         N/A     86  77  75 S3          N/A  HX  97
$$

...OBSERVATIONS IN SOUTHWEST NEBRASKA AND FAR NORTHEAST COLORADO...

CITY           SKY/WX    TMP DP  RH WIND       PRES   REMARKS
WRAY             N/A     83  51  32 NW16G25   30.03R
HOLYOKE        FAIR      81  55  41 N13G24    30.02S
IMPERIAL       SUNNY     80  56  43 NW10      29.99R
OGALLALA       SUNNY     77  55  45 NW18G25   29.98R
NORTH PLATTE   SUNNY     80  64  58 NW12      29.92R
MCCOOK         SUNNY     84  64  50 W12       29.92R
LEXINGTON      SUNNY     82  71  70 S7        29.90S
PAXTON           N/A     72  64  75 CALM        N/A
SUTHERLAND       N/A     84  68  59 W3          N/A
BRADY            N/A     82  66  58 S3          N/A
GOTHENBURG       N/A     79  64  59 W3          N/A
CALLAWAY         N/A     75  70  86 W10         N/A
$$

...SOME WEATHER OBSERVATIONS FROM AROUND THE REGION...

CITY           SKY/WX    TMP DP  RH WIND       PRES   REMARKS
DENVER         PTSUNNY   84  45  25 NE14      30.18R
LARAMIE        MOSUNNY   70  46  42 SW8       30.30S
CHEYENNE       PTSUNNY   67  43  41 N10G18    30.22R
SCOTTSBLUFF    MOSUNNY   72  50  45 W10       30.09R
RAPID CITY     SUNNY     70  46  42 N15       30.06S
PIERRE         CLOUDY    74  69  85 N15       29.89R
WINNER         CLOUDY    75  70  84 NW9       29.89R
SIOUX FALLS    TSTM      73  70  90 CALM      29.88R
OMAHA          CLOUDY    78  71  79 N9        29.85R
GRAND ISLAND   CLOUDY    79  74  84 E3        29.86F HAZE
KANSAS CITY    CLOUDY    80  72  76 S13       29.84R
WICHITA        CLOUDY    85  65  51 S15       29.88S
HAYS           MOSUNNY   82  70  65 N9        29.89S
LIBERAL        SUNNY     84  54  34 SW9       30.00S
GOODLAND       SUNNY     83  66  56 NW8       30.01R
$$



USA.gov is the U.S. government's official web portal to all federal, state and local government web resources and services.